User: anonymous   Login
Location: Drayton Valley
(53.2170°N, 114.9830°W)
Time: 10:40:14
(UTC-07:00)
Language:

MOZ.5/SAFIR/RUBIN 5/SL-8 - Orbit

View from above orbital plane
View from above orbital plane
View from above satellite
View from above satellite

Ground track
Ground track

The orbit data is extracted from the following two-line orbital elements,

1 28898U 05043G   14325.16859275  .00000784  00000-0  17353-3 0  9839
2 28898 097.8349 146.0842 0018823 260.6465 226.9014 14.59638560482828
Epoch (UTC): 21 November 2014 04:02:46
Eccentricity: 0.0018823
inclination: 97.8349°
perigee height: 681 km
apogee height: 707 km
right ascension of ascending node: 146.0842°
argument of perigee: 260.6465°
revolutions per day: 14.59638560
mean anomaly at epoch: 226.9014°
orbit number at epoch: 48282

The dashed part of the orbit path shows where the satellite is in the earth's shadow,  

DLR